TimeCST,TemperatureF,Dew PointF,Humidity,Sea Level PressureIn,VisibilityMPH,Wind Direction,Wind SpeedMPH,Gust SpeedMPH,PrecipitationIn,Events,Conditions,WindDirDegrees,DateUTC
12:52 AM,30.0,10.9,45,30.34,10.0,ENE,5.8,-,N/A,,Clear,60,2013-02-20 06:52:00
1:52 AM,30.0,10.0,43,30.33,10.0,ENE,5.8,-,N/A,,Clear,60,2013-02-20 07:52:00
2:52 AM,28.0,10.0,47,30.30,10.0,Variable,5.8,-,N/A,,Clear,0,2013-02-20 08:52:00
3:52 AM,28.0,10.0,47,30.30,10.0,ENE,6.9,-,N/A,,Clear,70,2013-02-20 09:52:00
4:52 AM,28.0,9.0,45,30.30,10.0,Variable,4.6,-,N/A,,Mostly Cloudy,0,2013-02-20 10:52:00
5:52 AM,27.0,9.0,47,30.31,10.0,Variable,3.5,-,N/A,,Partly Cloudy,0,2013-02-20 11:52:00
6:52 AM,27.0,9.0,47,30.33,10.0,Variable,3.5,-,N/A,,Overcast,0,2013-02-20 12:52:00
7:52 AM,28.0,9.0,45,30.35,10.0,Calm,Calm,-,N/A,,Overcast,0,2013-02-20 13:52:00
8:52 AM,28.0,10.0,47,30.35,10.0,Variable,3.5,-,N/A,,Overcast,0,2013-02-20 14:52:00
9:52 AM,28.9,10.0,45,30.34,10.0,Variable,3.5,-,N/A,,Overcast,0,2013-02-20 15:52:00
11:52 AM,30.9,14.0,50,30.30,7.0,Variable,6.9,-,0.00,Snow,Light Snow,0,2013-02-20 17:52:00
12:52 PM,32.0,15.1,50,30.28,10.0,East,5.8,-,0.00,,Overcast,100,2013-02-20 18:52:00
1:52 PM,34.0,14.0,44,30.24,10.0,East,6.9,-,N/A,,Overcast,100,2013-02-20 19:52:00
2:52 PM,37.0,17.1,44,30.20,10.0,Variable,5.8,-,0.00,,Overcast,0,2013-02-20 20:52:00
3:52 PM,37.9,16.0,41,30.16,10.0,ENE,9.2,-,N/A,,Overcast,70,2013-02-20 21:52:00
5:52 PM,34.0,12.9,42,30.13,10.0,ENE,8.1,18.4,N/A,,Partly Cloudy,70,2013-02-20 23:52:00
6:52 PM,32.0,12.9,45,30.13,10.0,East,8.1,-,N/A,,Scattered Clouds,80,2013-02-21 00:52:00
7:52 PM,32.0,12.9,45,30.12,10.0,ENE,8.1,17.3,N/A,,Overcast,70,2013-02-21 01:52:00
8:00 PM,32.0,12.2,44,30.10,10.0,ENE,8.1,-,N/A,,Overcast,70,2013-02-21 02:00:00
9:52 PM,33.1,14.0,46,30.13,10.0,Variable,5.8,-,0.00,,Overcast,0,2013-02-21 03:52:00
10:52 PM,32.0,17.1,54,30.12,10.0,East,6.9,-,0.00,Snow,Light Snow,80,2013-02-21 04:52:00
11:52 PM,30.9,19.9,64,30.10,10.0,East,8.1,-,0.00,,Overcast,80,2013-02-21 05:52:00